Time,TemperatureF,DewpointF,PressureIn,WindDirection,WindDirectionDegrees,WindSpeedMPH,WindSpeedGustMPH,Humidity,HourlyPrecipIn,Conditions,Clouds,dailyrainin,SoftwareType,DateUTC
2013-02-22 00:12:00,22.2,20.0,30.41,SSW,198,0.0,0.0,91,0.00,,,0.05,weatherlink.com 1.10,2013-02-22 07:12:00,
2013-02-22 00:26:00,21.8,20.0,30.42,SSW,198,0.0,0.0,91,0.00,,,0.05,weatherlink.com 1.10,2013-02-22 07:26:00,
2013-02-22 00:42:00,21.3,19.0,30.42,SSW,198,0.0,0.0,90,0.00,,,0.05,weatherlink.com 1.10,2013-02-22 07:42:00,
2013-02-22 00:57:00,20.9,19.0,30.43,SSW,198,0.0,0.0,90,0.00,,,0.05,weatherlink.com 1.10,2013-02-22 07:57:00,
2013-02-22 01:12:00,20.2,18.0,30.43,SSW,198,0.0,0.0,89,0.00,,,0.05,weatherlink.com 1.10,2013-02-22 08:12:00,
2013-02-22 01:27:00,19.6,17.0,30.42,SSW,198,0.0,0.0,90,0.00,,,0.05,weatherlink.com 1.10,2013-02-22 08:27:00,
2013-02-22 01:42:00,18.6,16.0,30.41,SSW,198,0.0,0.0,88,0.00,,,0.05,weatherlink.com 1.10,2013-02-22 08:42:00,
2013-02-22 01:57:00,17.5,15.0,30.42,SSW,198,0.0,1.0,88,0.00,,,0.05,weatherlink.com 1.10,2013-02-22 08:57:00,
2013-02-22 02:12:00,17.0,14.0,30.43,SSW,198,0.0,0.0,88,0.00,,,0.05,weatherlink.com 1.10,2013-02-22 09:12:00,
2013-02-22 02:27:00,15.8,12.0,30.42,SSW,198,0.0,1.0,86,0.00,,,0.05,weatherlink.com 1.10,2013-02-22 09:27:00,
2013-02-22 02:42:00,14.4,11.0,30.41,SSW,198,0.0,1.0,86,0.00,,,0.05,weatherlink.com 1.10,2013-02-22 09:42:00,
2013-02-22 02:57:00,13.1,10.0,30.41,SSW,198,0.0,1.0,86,0.00,,,0.05,weatherlink.com 1.10,2013-02-22 09:57:00,
2013-02-22 03:12:00,11.7,8.0,30.42,SSW,198,1.0,1.0,85,0.00,,,0.05,weatherlink.com 1.10,2013-02-22 10:12:00,
2013-02-22 03:27:00,10.3,7.0,30.42,SSW,198,0.0,0.0,85,0.00,,,0.05,weatherlink.com 1.10,2013-02-22 10:27:00,
2013-02-22 03:42:00,9.5,6.0,30.43,SSW,198,0.0,0.0,85,0.00,,,0.05,weatherlink.com 1.10,2013-02-22 10:42:00,
2013-02-22 03:57:00,9.1,6.0,30.43,SSW,198,0.0,0.0,86,0.00,,,0.05,weatherlink.com 1.10,2013-02-22 10:57:00,
2013-02-22 04:12:00,8.2,4.0,30.43,SSW,198,0.0,1.0,84,0.00,,,0.05,weatherlink.com 1.10,2013-02-22 11:12:00,
2013-02-22 04:27:00,7.0,3.0,30.45,SSW,198,1.0,2.0,84,0.00,,,0.05,weatherlink.com 1.10,2013-02-22 11:27:00,
2013-02-22 04:42:00,6.0,3.0,30.45,SSW,198,1.0,2.0,85,0.00,,,0.05,weatherlink.com 1.10,2013-02-22 11:42:00,
2013-02-22 04:57:00,5.8,2.0,30.46,SSW,198,0.0,1.0,85,0.00,,,0.05,weatherlink.com 1.10,2013-02-22 11:57:00,
2013-02-22 05:12:00,5.4,2.0,30.46,SSW,198,0.0,2.0,84,0.00,,,0.05,weatherlink.com 1.10,2013-02-22 12:12:00,
2013-02-22 05:27:00,4.7,1.0,30.46,SSW,198,0.0,0.0,84,0.00,,,0.05,weatherlink.com 1.10,2013-02-22 12:27:00,
2013-02-22 05:43:00,4.0,0.0,30.47,SSW,198,0.0,1.0,84,0.00,,,0.05,weatherlink.com 1.10,2013-02-22 12:43:00,
2013-02-22 05:58:00,3.2,-1.0,30.47,SSW,198,0.0,0.0,83,0.00,,,0.05,weatherlink.com 1.10,2013-02-22 12:58:00,
2013-02-22 06:13:00,2.7,-1.0,30.48,SSW,198,0.0,2.0,84,0.00,,,0.05,weatherlink.com 1.10,2013-02-22 13:13:00,
2013-02-22 06:28:00,2.4,-1.0,30.49,SSW,198,0.0,3.0,84,0.00,,,0.05,weatherlink.com 1.10,2013-02-22 13:28:00,
2013-02-22 06:43:00,3.2,0.0,30.49,SSW,198,0.0,2.0,85,0.00,,,0.05,weatherlink.com 1.10,2013-02-22 13:43:00,
2013-02-22 06:58:00,2.4,-2.0,30.50,SSW,198,0.0,3.0,83,0.00,,,0.05,weatherlink.com 1.10,2013-02-22 13:58:00,
2013-02-22 07:13:00,1.9,-2.0,30.51,SSW,198,0.0,2.0,83,0.00,,,0.05,weatherlink.com 1.10,2013-02-22 14:13:00,
2013-02-22 07:28:00,1.8,-2.0,30.52,SSW,198,0.0,0.0,84,0.00,,,0.05,weatherlink.com 1.10,2013-02-22 14:28:00,
2013-02-22 07:43:00,2.0,-2.0,30.53,SSW,198,1.0,2.0,84,0.00,,,0.05,weatherlink.com 1.10,2013-02-22 14:43:00,
2013-02-22 07:59:00,2.6,-1.0,30.53,SSW,198,0.0,1.0,85,0.00,,,0.05,weatherlink.com 1.10,2013-02-22 14:59:00,
2013-02-22 08:13:00,4.4,1.0,30.55,SSW,198,0.0,0.0,87,0.00,,,0.05,weatherlink.com 1.10,2013-02-22 15:13:00,
2013-02-22 08:28:00,6.8,4.0,30.55,SSW,198,0.0,0.0,89,0.00,,,0.05,weatherlink.com 1.10,2013-02-22 15:28:00,
2013-02-22 08:44:00,11.3,9.0,30.56,SSW,198,0.0,0.0,91,0.00,,,0.05,weatherlink.com 1.10,2013-02-22 15:44:00,
2013-02-22 08:58:00,14.3,12.0,30.56,SSW,198,0.0,0.0,91,0.00,,,0.05,weatherlink.com 1.10,2013-02-22 15:58:00,
2013-02-22 09:14:00,16.6,14.0,30.56,SSW,198,0.0,1.0,90,0.00,,,0.05,weatherlink.com 1.10,2013-02-22 16:14:00,
2013-02-22 09:29:00,19.1,15.0,30.56,SSW,198,0.0,2.0,83,0.00,,,0.05,weatherlink.com 1.10,2013-02-22 16:29:00,
2013-02-22 09:44:00,20.8,16.0,30.57,SSW,198,2.0,2.0,80,0.00,,,0.05,weatherlink.com 1.10,2013-02-22 16:44:00,
2013-02-22 09:59:00,21.8,17.0,30.57,SSW,198,0.0,2.0,82,0.00,,,0.05,weatherlink.com 1.10,2013-02-22 16:59:00,
2013-02-22 10:14:00,23.0,17.0,30.57,SSW,200,0.0,3.0,79,0.00,,,0.05,weatherlink.com 1.10,2013-02-22 17:14:00,
2013-02-22 10:29:00,23.5,18.0,30.57,SSW,200,0.0,2.0,78,0.00,,,0.05,weatherlink.com 1.10,2013-02-22 17:29:00,
2013-02-22 10:44:00,24.0,17.0,30.57,SSW,200,1.0,2.0,74,0.00,,,0.05,weatherlink.com 1.10,2013-02-22 17:44:00,
2013-02-22 10:59:00,24.9,18.0,30.57,SSW,200,1.0,2.0,76,0.00,,,0.00,weatherlink.com 1.10,2013-02-22 17:59:00,
2013-02-22 11:14:00,25.8,18.0,30.57,SSW,200,0.0,3.0,73,0.00,,,0.00,weatherlink.com 1.10,2013-02-22 18:14:00,
2013-02-22 11:30:00,27.4,20.0,30.58,SSW,200,1.0,3.0,74,0.00,,,0.00,weatherlink.com 1.10,2013-02-22 18:30:00,
2013-02-22 11:44:00,27.8,20.0,30.57,SW,230,3.0,4.0,73,0.00,,,0.00,weatherlink.com 1.10,2013-02-22 18:44:00,
2013-02-22 12:00:00,28.4,22.0,30.57,SE,145,2.0,4.0,76,0.00,,,0.00,weatherlink.com 1.10,2013-02-22 19:00:00,
2013-02-22 12:14:00,28.6,22.0,30.57,West,269,1.0,6.0,75,0.00,,,0.00,weatherlink.com 1.10,2013-02-22 19:14:00,
2013-02-22 12:29:00,28.8,22.0,30.58,WSW,257,2.0,7.0,74,0.00,,,0.00,weatherlink.com 1.10,2013-02-22 19:29:00,
2013-02-22 12:44:00,29.2,23.0,30.58,SW,224,2.0,6.0,76,0.00,,,0.00,weatherlink.com 1.10,2013-02-22 19:44:00,
2013-02-22 12:59:00,29.8,23.0,30.57,South,170,3.0,5.0,77,0.00,,,0.00,weatherlink.com 1.10,2013-02-22 19:59:00,
2013-02-22 13:15:00,30.4,24.0,30.57,SSW,199,2.0,5.0,76,0.00,,,0.00,weatherlink.com 1.10,2013-02-22 20:15:00,
2013-02-22 13:30:00,31.5,25.0,30.57,WSW,255,1.0,4.0,76,0.00,,,0.00,weatherlink.com 1.10,2013-02-22 20:30:00,
2013-02-22 13:45:00,31.7,25.0,30.57,South,170,4.0,5.0,75,0.00,,,0.00,weatherlink.com 1.10,2013-02-22 20:45:00,
2013-02-22 14:00:00,32.8,25.0,30.57,SSE,155,2.0,5.0,74,0.05,,,0.05,weatherlink.com 1.10,2013-02-22 21:00:00,
2013-02-22 14:15:00,32.2,24.0,30.56,WSW,255,3.0,7.0,73,0.08,,,0.08,weatherlink.com 1.10,2013-02-22 21:15:00,
2013-02-22 14:30:00,32.0,25.0,30.56,SW,219,3.0,5.0,74,0.10,,,0.10,weatherlink.com 1.10,2013-02-22 21:30:00,
2013-02-22 14:45:00,32.3,25.0,30.55,SSW,204,2.0,4.0,74,0.12,,,0.12,weatherlink.com 1.10,2013-02-22 21:45:00,
2013-02-22 15:00:00,33.1,25.0,30.55,SSW,198,1.0,4.0,71,0.09,,,0.14,weatherlink.com 1.10,2013-02-22 22:00:00,
2013-02-22 15:15:00,33.8,25.0,30.55,WSW,255,5.0,8.0,69,0.08,,,0.16,weatherlink.com 1.10,2013-02-22 22:15:00,
2013-02-22 15:30:00,34.4,25.0,30.55,WSW,255,5.0,8.0,69,0.08,,,0.18,weatherlink.com 1.10,2013-02-22 22:30:00,
2013-02-22 15:45:00,34.6,25.0,30.54,SW,228,0.0,5.0,69,0.08,,,0.20,weatherlink.com 1.10,2013-02-22 22:45:00,
2013-02-22 16:00:00,35.0,23.0,30.54,SW,229,3.0,6.0,63,0.07,,,0.21,weatherlink.com 1.10,2013-02-22 23:00:00,
2013-02-22 16:15:00,35.1,24.0,30.54,SSE,161,2.0,5.0,64,0.07,,,0.23,weatherlink.com 1.10,2013-02-22 23:15:00,
2013-02-22 16:30:00,35.2,22.0,30.54,WSW,258,4.0,5.0,58,0.06,,,0.24,weatherlink.com 1.10,2013-02-22 23:30:00,
2013-02-22 16:45:00,34.4,21.0,30.54,WSW,257,0.0,5.0,58,0.05,,,0.25,weatherlink.com 1.10,2013-02-22 23:45:00,
2013-02-22 17:00:00,33.9,19.0,30.55,SW,233,1.0,4.0,55,0.04,,,0.25,weatherlink.com 1.10,2013-02-23 00:00:00,
2013-02-22 17:15:00,34.0,20.0,30.55,NNW,345,1.0,3.0,58,0.02,,,0.25,weatherlink.com 1.10,2013-02-23 00:15:00,
2013-02-22 17:30:00,34.0,19.0,30.55,WSW,238,0.0,3.0,55,0.02,,,0.26,weatherlink.com 1.10,2013-02-23 00:30:00,
2013-02-22 17:46:00,33.6,20.0,30.57,West,274,0.0,3.0,57,0.01,,,0.26,weatherlink.com 1.10,2013-02-23 00:46:00,
2013-02-22 18:00:00,32.9,20.0,30.57,SW,232,0.0,1.0,60,0.01,,,0.26,weatherlink.com 1.10,2013-02-23 01:00:00,
2013-02-22 18:16:00,31.2,23.0,30.58,SW,232,0.0,2.0,72,0.01,,,0.26,weatherlink.com 1.10,2013-02-23 01:16:00,
2013-02-22 18:30:00,30.1,23.0,30.59,SW,232,0.0,0.0,74,0.00,,,0.26,weatherlink.com 1.10,2013-02-23 01:30:00,
2013-02-22 18:45:00,29.0,23.0,30.59,SW,232,0.0,0.0,77,0.00,,,0.26,weatherlink.com 1.10,2013-02-23 01:45:00,
2013-02-22 19:00:00,27.9,23.0,30.60,SW,232,0.0,0.0,80,0.00,,,0.26,weatherlink.com 1.10,2013-02-23 02:00:00,
2013-02-22 19:15:00,26.9,22.0,30.60,SW,232,0.0,0.0,81,0.00,,,0.26,weatherlink.com 1.10,2013-02-23 02:15:00,
2013-02-22 19:30:00,26.2,21.0,30.60,SW,232,0.0,0.0,82,0.00,,,0.26,weatherlink.com 1.10,2013-02-23 02:30:00,
2013-02-22 19:45:00,25.5,21.0,30.61,SW,232,0.0,1.0,83,0.00,,,0.26,weatherlink.com 1.10,2013-02-23 02:45:00,
2013-02-22 20:01:00,24.6,20.0,30.61,SW,232,0.0,2.0,83,0.00,,,0.26,weatherlink.com 1.10,2013-02-23 03:01:00,
2013-02-22 20:15:00,24.1,20.0,30.62,SW,232,0.0,1.0,83,0.00,,,0.26,weatherlink.com 1.10,2013-02-23 03:15:00,
2013-02-22 20:30:00,23.2,19.0,30.62,SW,232,0.0,0.0,83,0.00,,,0.26,weatherlink.com 1.10,2013-02-23 03:30:00,
2013-02-22 20:46:00,22.6,19.0,30.62,SW,232,0.0,1.0,85,0.00,,,0.26,weatherlink.com 1.10,2013-02-23 03:46:00,
2013-02-22 21:01:00,21.9,18.0,30.62,SW,232,0.0,2.0,85,0.00,,,0.26,weatherlink.com 1.10,2013-02-23 04:01:00,
2013-02-22 21:16:00,21.1,17.0,30.62,SW,232,0.0,2.0,85,0.00,,,0.26,weatherlink.com 1.10,2013-02-23 04:16:00,
2013-02-22 21:31:00,20.6,17.0,30.63,SW,232,0.0,1.0,85,0.00,,,0.26,weatherlink.com 1.10,2013-02-23 04:31:00,
2013-02-22 21:46:00,19.5,15.0,30.63,SW,232,0.0,2.0,84,0.00,,,0.26,weatherlink.com 1.10,2013-02-23 04:46:00,
2013-02-22 22:01:00,19.3,16.0,30.63,SW,232,0.0,1.0,85,0.00,,,0.26,weatherlink.com 1.10,2013-02-23 05:01:00,
2013-02-22 22:16:00,18.4,14.0,30.63,North,6,0.0,2.0,84,0.00,,,0.26,weatherlink.com 1.10,2013-02-23 05:16:00,
2013-02-22 22:31:00,17.6,13.0,30.63,North,6,0.0,2.0,83,0.00,,,0.26,weatherlink.com 1.10,2013-02-23 05:31:00,
2013-02-22 22:46:00,17.1,13.0,30.63,North,6,0.0,0.0,84,0.00,,,0.26,weatherlink.com 1.10,2013-02-23 05:46:00,
2013-02-22 23:01:00,16.6,13.0,30.64,North,6,0.0,1.0,85,0.00,,,0.26,weatherlink.com 1.10,2013-02-23 06:01:00,
2013-02-22 23:16:00,16.2,13.0,30.64,North,6,0.0,1.0,86,0.00,,,0.26,weatherlink.com 1.10,2013-02-23 06:16:00,
2013-02-22 23:31:00,15.9,12.0,30.64,North,6,0.0,2.0,85,0.00,,,0.26,weatherlink.com 1.10,2013-02-23 06:31:00,
2013-02-22 23:46:00,15.6,12.0,30.64,North,6,1.0,1.0,85,0.00,,,0.26,weatherlink.com 1.10,2013-02-23 06:46:00,